Regional Weather Roundup
Issued by NWS Midland/Odessa, TX

Skip options and go directly to product.
Home | Oldest Version | Next Version | Current Version | All | Text Only | Save Text | Print | Product List | Glossary On

Skip product version selection by date and time.   
621
ASUS44 KMAF 301001
RWRMAF
MIDLAND AREA WEATHER ROUNDUP
NATIONAL WEATHER SERVICE MIDLAND TX
500 AM CDT MON MAY 30 2016

...IN SOUTHWEST TEXAS AND SOUTHEAST NEW MEXICO...

CITY           SKY/WX    TMP DP  RH WIND       PRES   REMARKS
ALPINE         CLEAR     65  55  68 SW9       30.13S
ANDREWS        FAIR      56  56 100 CALM      30.05F
ARTESIA        CLOUDY    61  59  94 SW7       30.10S
BIG SPRING     CLEAR     57  55  91 E7        30.04S
CARLSBAD       PTCLDY    60  55  83 W5        30.07F
DRYDEN           N/A     71  69  93 NE10      29.98R
FORT STOCKTON  NOT AVBL
GUAD PASS      NOT AVBL
HOBBS          CLEAR     55  55 100 CALM      30.08R
MARFA          CLOUDY    56  53  90 NW6       30.14R
MIDLAND AIRPK  CLEAR     61  56  81 E7        30.04S
MIDLAND INTL   CLEAR     61  55  81 E8        30.04R
ODESSA         CLEAR     60  54  80 E8        30.05S
PECOS          CLEAR     62  56  79 E7        30.04R
PRESIDIO       FAIR      75  55  49 N8        29.99S
SEMINOLE       CLEAR     56  54  90 SE5       30.07F
SNYDER           N/A     56  56  99 CALM      30.03F
WINK           NOT AVBL
$$
...OTHER STATIONS IN TEXAS...

CITY           SKY/WX    TMP DP  RH WIND       PRES   REMARKS
ABILENE        CLOUDY    65  63  93 E5        30.00F
AMARILLO       PTCLDY    52  50  93 NW6       30.12R
AUSTIN         MOCLDY    72  71  97 NW3       30.04R FOG
BROWNSVILLE    PTCLDY    76  75  97 SE3       29.91F
CORPUS CHRISTI PTCLDY    76  74  93 E7        29.93F
DALLAS FTW     TSTM      69  62  78 S24       29.91F
DEL RIO        CLOUDY    77  72  84 E9        29.93S
EL PASO        PTCLDY    74  40  29 S9        30.02S
HOUSTON INT    MOCLDY    69  69 100 CALM      30.02R
LUBBOCK        PTCLDY    55  53  93 S6        30.06S
SAN ANGELO     CLOUDY    65  62  90 NE8       30.00F
SAN ANTONIO    CLOUDY    75  72  90 SE8       30.00S
WACO           LGT RAIN  69  66  90 W10       30.09R
WICHITA FALLS  NOT AVBL
$$
...OTHER LOCATIONS IN NEW MEXICO...

CITY           SKY/WX    TMP DP  RH WIND       PRES   REMARKS
ALAMAGORDO     CLEAR     66  34  30 S9        30.05R
ALBUQUERQUE    MOCLDY    62  39  42 N6        30.09S
CANNON AFB     MOCLDY    51  51  99 NW5       30.14S
CLOVIS         CLEAR     48  45  87 N8        30.14R
HOLLOMAN AFB   CLEAR     71  35  26 SE12      30.02S
ROSWELL        CLOUDY    63  51  65 S3        30.09F
RUIDOSO          N/A     48  48 100 SW6       30.23F FOG
SANTA FE       CLEAR     54  44  69 SE12      30.17R
TRUTH OR CONSE PTCLDY    63  24  22 W8        30.06S
TUCUMCARI      CLEAR     49  47  93 CALM      30.12F FOG
$$

USA.gov is the U.S. government's official web portal to all federal, state and local government web resources and services.